Theta_e
320 320 320 319 319 320 319 319 319 318 318 318 317 317 317 318 318 318 317 317 316 316 316 316 316 316 315 314 314 312 311 310 309 309 307 306 305 304 304 304 304 304
319 319 318 319 318 318 317 318 317 317 316 316 316 316 316 316 316 316 315 315 315 315 315 315 315 315 315 314 313 312 311 310 309 310 308 307 306 305 304 304 304 304
318 317 316 316 315 315 315 315 315 315 315 315 315 314 315 314 314 313 313 313 313 313 313 314 313 313 313 313 313 312 311 309 308 309 308 307 307 305 305 304 304 303
316 315 315 314 314 315 315 314 313 313 313 313 313 313 313 313 312 311 312 310 311 311 312 312 312 312 312 312 312 310 310 310 309 308 307 306 305 305 304 304 303 303
314 313 313 313 313 313 313 312 312 312 312 312 312 312 311 310 310 310 309 310 310 310 310 310 311 311 311 310 310 309 309 308 309 308 306 305 305 304 304 303 302 301
312 312 312 311 311 311 310 310 311 311 311 310 310 310 310 310 309 308 308 308 309 309 308 308 308 309 309 309 308 308 308 308 307 306 305 304 303 303 303 302 300 298
310 309 309 310 309 310 309 309 309 309 309 309 309 308 308 307 307 307 307 307 307 307 307 307 307 307 307 307 307 306 306 306 306 305 304 302 302 300 299 299 298 297
309 309 309 308 308 307 308 308 307 307 307 306 306 307 306 306 305 306 305 305 305 305 306 306 306 306 306 306 305 305 304 305 305 304 303 302 300 299 297 299 297 296
307 306 306 306 306 306 306 306 305 305 305 305 305 305 305 305 304 304 304 304 304 304 304 304 304 304 304 304 304 304 303 304 304 303 302 301 300 299 298 297 296 295
304 304 304 304 304 304 304 304 304 304 303 303 303 303 303 303 303 303 303 303 302 302 302 302 302 302 303 303 303 303 302 302 302 303 303 302 301 300 299 298 297 296
303 303 303 303 303 303 302 301 301 301 301 301 301 301 301 301 301 301 300 301 300 300 301 301 301 301 301 301 302 302 302 301 301 301 301 300 300 301 297 299 298 297
301 301 301 301 301 301 300 300 300 300 300 300 300 300 300 300 300 300 300 300 300 300 300 300 301 300 300 300 300 300 300 300 300 300 300 299 299 299 299 299 298 298
299 299 299 299 299 299 299 298 298 298 298 298 298 298 298 298 299 298 299 299 299 299 299 299 299 299 300 300 300 300 300 299 299 299 299 299 299 299 298 298 298 298
297 297 297 297 297 297 297 297 297 297 297 297 297 297 297 298 298 298 299 299 298 298 298 298 298 298 298 298 298 299 298 298 298 298 297 297 297 297 297 297 297 298
295 295 295 295 295 296 296 295 296 296 296 296 296 297 297 297 297 296 296 297 297 297 297 298 297 297 298 298 296 296 296 296 297 297 296 296 296 296 296 296 297 297
294 294 294 294 294 294 294 294 294 294 294 295 295 296 296 296 296 296 296 296 296 296 296 297 297 299 294 291 292 293 294 294 295 295 295 295 294 294 295 295 295 296
293 293 293 293 293 293 293 293 293 294 294 294 294 294 294 294 295 295 295 295 295 295 295 297 298 298 292 293 293 293 292 293 293 294 294 294 294 294 294 294 294 295
292 292 292 292 292 292 292 292 292 292 293 294 294 292 293 294 294 294 295 295 296 295 295 295 296 293 293 292 292 292 292 292 292 293 293 294 294 294 294 294 294 295
292 291 291 291 291 290 291 291 291 291 291 291 291 293 292 294 294 293 294 294 294 293 293 294 293 292 292 292 292 292 292 291 291 292 292 292 293 293 293 293 293 293
291 291 290 290 289 289 290 290 290 290 290 291 290 290 291 291 291 291 292 292 292 292 292 292 292 291 292 292 291 291 291 291 291 291 292 292 292 293 293 293 293 293
290 290 289 288 289 288 287 287 288 288 288 288 289 289 288 289 289 288 290 289 290 290 290 290 292 291 291 291 291 291 291 290 291 292 292 292 292 292 292 292 292 293
289 289 288 288 288 287 286 286 286 286 286 287 287 288 288 288 288 288 288 287 288 289 288 288 289 290 290 290 289 290 290 289 290 290 290 290 290 291 291 291 291 291
288 287 287 286 286 286 285 286 285 285 286 286 286 286 287 287 287 287 287 287 287 287 287 288 288 289 289 289 289 289 288 287 288 287 288 289 289 290 290 290 290 291
287 286 285 285 285 284 284 285 285 285 286 285 285 285 285 286 286 286 287 286 286 286 286 286 286 287 288 288 288 288 288 286 287 287 287 287 288 289 289 289 290 287
285 285 284 284 284 284 283 283 284 285 285 285 285 285 285 286 286 286 286 286 286 286 286 286 286 286 288 288 288 288 287 286 286 286 286 286 286 286 287 288 288 288
283 283 283 283 282 283 283 283 284 284 284 284 284 285 285 286 286 286 285 286 286 286 286 286 286 286 286 287 287 287 287 286 286 285 284 285 285 285 285 286 287 287
Wind_Speed
7 7 6 6 5 5 5 5 4 4 4 3 4 4 4 4 3 4 4 4 4 6 6 6 5 4 4 4 4 5 4 4 4 5 6 6 6 8 9 10 10 8
8 7 6 5 5 4 4 4 3 3 4 4 3 3 3 2 2 2 3 3 3 4 5 5 6 5 4 5 5 6 5 6 7 5 6 7 7 7 10 11 11 10
7 7 6 6 4 5 5 4 3 3 4 4 3 3 2 2 2 2 2 2 3 3 4 5 5 5 5 4 5 6 6 5 5 4 6 6 5 6 7 8 7 10
7 7 5 5 4 5 5 5 5 4 4 4 4 3 2 2 1 2 2 2 3 4 4 5 5 4 4 5 5 4 5 5 4 4 5 5 5 6 6 6 8 8
6 5 5 5 5 4 4 4 5 4 4 3 3 3 3 2 2 1 1 2 3 4 4 4 4 3 3 4 4 5 4 4 3 4 5 6 5 5 6 6 7 8
5 5 5 5 5 5 5 5 4 4 4 4 3 2 2 1 1 2 3 3 3 3 4 4 3 3 3 3 4 5 5 4 3 4 6 7 6 5 4 5 7 8
6 6 6 5 5 5 4 4 3 3 3 2 2 1 1 1 2 2 3 3 3 4 3 2 2 4 4 4 4 4 4 4 5 6 6 6 5 5 4 5 6 7
6 5 5 5 5 5 4 4 3 3 3 2 2 2 2 2 3 3 3 3 3 3 3 3 4 6 5 5 5 5 5 4 5 6 6 6 5 6 5 5 5 7
6 5 5 5 5 5 4 4 3 3 3 3 2 2 2 1 2 2 3 3 2 3 3 4 5 5 4 5 5 5 5 5 4 5 5 6 6 6 6 5 6 6
5 5 5 5 5 4 5 4 3 3 3 2 2 2 2 1 1 1 1 2 2 3 4 4 5 5 5 6 6 5 6 7 6 6 5 6 6 6 6 6 7 7
6 5 5 5 5 5 4 4 3 3 3 2 2 2 2 1 1 1 0 1 2 3 4 4 5 5 5 5 5 5 6 6 6 7 6 6 6 6 5 6 7 7
6 5 5 6 5 5 4 3 3 3 3 2 2 2 2 1 1 0 1 2 3 3 3 4 4 4 4 5 5 5 5 5 6 6 6 6 6 6 6 6 6 6
5 5 5 6 5 4 4 3 3 3 3 3 2 2 1 1 0 1 1 1 2 2 2 2 3 3 3 4 4 4 5 5 5 5 5 5 6 6 6 6 7 7
5 5 6 5 5 4 4 4 4 4 4 3 2 1 1 0 0 1 0 0 1 1 1 1 1 2 2 3 3 3 4 4 5 5 5 6 6 6 6 6 7 7
6 5 5 5 5 5 5 5 5 4 3 2 1 0 0 0 1 1 0 0 0 0 0 1 1 2 1 1 3 4 5 5 5 5 5 5 6 6 6 6 7 7
6 5 5 5 5 5 5 4 4 3 2 1 1 0 0 0 0 0 0 0 0 0 1 1 1 1 2 3 2 4 5 5 5 5 5 5 5 6 6 6 6 6
6 6 5 6 5 5 5 4 4 3 2 1 0 0 0 0 0 0 0 0 0 0 1 1 1 1 3 1 2 4 4 5 5 5 5 5 5 6 6 7 6 6
6 6 6 5 5 5 4 3 3 1 1 1 1 0 0 0 0 0 0 0 0 1 1 1 1 1 2 4 3 2 2 4 5 5 5 5 5 6 5 5 6 6
6 5 5 5 4 4 3 3 2 2 1 1 1 0 0 0 1 1 1 1 1 2 2 1 2 4 7 9 9 8 6 5 4 4 5 6 6 6 6 6 7 7
5 5 5 4 4 3 3 3 3 1 1 0 0 0 1 1 1 1 1 2 1 1 2 2 2 4 7 8 9 10 9 7 5 5 5 6 6 6 6 6 6 7
5 5 5 4 4 2 2 2 2 2 1 0 0 1 1 1 0 0 1 2 2 2 2 2 2 3 5 8 9 10 11 9 5 5 5 5 6 5 6 7 7 7
5 5 5 4 4 3 3 2 2 2 2 2 2 1 1 0 1 0 1 1 2 3 2 2 2 4 6 8 9 10 11 5 5 5 6 6 6 6 6 6 7 7
5 5 5 4 2 3 3 3 2 2 2 2 2 2 2 1 1 1 1 1 1 2 3 3 2 4 6 7 8 11 8 3 5 4 4 6 7 7 7 6 6 7
5 5 3 2 2 3 3 2 2 1 1 1 1 2 2 2 2 2 2 2 2 2 2 2 2 3 5 7 9 10 8 4 4 4 5 7 7 6 6 7 7 11
5 4 4 3 3 3 3 2 1 1 1 1 1 2 2 2 2 2 2 3 3 2 3 3 2 2 6 8 10 11 8 4 4 5 5 5 7 8 7 7 8 8
4 4 3 4 4 3 3 2 1 1 1 2 2 2 1 1 1 2 3 3 3 2 2 2 1 3 4 9 11 12 12 6 4 5 7 8 8 9 10 8 7 7
Wind_Direction
186 184 186 188 198 204 200 200 201 207 217 227 233 232 229 223 223 229 239 252 255 257 259 256 246 221 199 218 217 243 253 231 231 227 227 225 229 237 249 250 243 239
180 177 177 180 185 183 183 189 195 203 213 220 229 234 230 229 223 231 243 252 247 245 249 257 259 258 236 211 210 225 226 220 226 221 233 225 237 227 241 244 242 241
174 174 175 180 181 178 182 175 186 197 207 209 214 218 217 186 222 235 258 270 280 280 273 264 259 260 262 260 246 236 231 243 253 246 247 249 242 232 248 252 248 243
172 170 168 175 179 179 177 178 180 193 199 204 205 194 177 188 210 253 272 275 268 273 273 269 266 273 278 269 254 253 261 255 234 236 241 240 233 240 243 241 243 241
160 160 165 171 179 175 172 179 179 185 184 194 185 190 184 189 199 227 251 265 262 265 266 271 273 276 279 283 281 271 260 260 236 224 244 246 238 235 240 238 245 249
148 160 165 171 169 170 178 175 174 179 186 190 193 183 170 160 229 247 257 256 255 255 259 265 278 291 283 273 275 272 276 274 263 238 247 252 254 238 238 231 241 248
155 157 160 162 162 166 164 161 156 163 182 165 118 146 130 211 226 238 250 253 255 256 261 275 281 274 270 271 260 256 252 252 262 257 252 252 247 248 238 238 241 244
149 150 158 157 159 154 153 139 148 165 152 136 158 161 155 199 224 236 242 248 251 268 269 268 263 260 261 264 265 264 260 245 249 255 257 256 248 252 244 241 244 247
142 144 147 150 147 139 140 148 150 149 147 150 161 145 152 194 219 222 238 244 264 279 279 270 268 267 266 263 265 270 271 269 256 250 255 258 254 254 249 243 246 246
141 143 149 149 142 130 136 142 141 134 121 134 131 133 144 159 177 223 247 271 278 279 269 271 266 265 263 262 265 267 272 274 278 274 264 259 258 261 255 245 245 249
144 148 143 134 121 117 122 122 122 111 105 112 129 141 147 138 124 110 310 258 252 250 252 249 250 252 258 265 268 270 271 275 278 282 284 285 281 277 267 258 257 255
134 128 119 110 106 108 109 105 101 105 111 111 99 98 88 77 67 38 190 234 234 241 245 257 268 271 275 275 276 278 279 281 284 285 288 288 287 289 289 283 270 266
121 111 104 101 94 91 96 97 90 87 86 82 71 68 68 107 127 184 223 230 251 266 269 273 271 273 272 276 281 285 287 290 292 293 289 289 289 290 289 285 283 282
105 99 92 89 94 100 95 88 78 73 63 65 73 68 145 174 198 182 187 190 232 245 276 286 306 296 295 293 294 293 293 288 286 286 284 282 282 277 276 277 274 271
104 95 96 99 99 95 84 71 67 61 60 60 58 71 96 162 166 146 194 205 194 234 246 254 244 252 247 319 332 321 311 303 297 292 292 288 284 284 280 279 281 280
101 96 95 94 84 79 74 71 70 69 70 62 72 123 139 83 107 91 33 319 321 290 249 238 248 248 86 47 320 301 310 303 297 289 285 279 281 281 281 276 273 273
94 91 90 83 76 74 75 70 73 72 73 85 177 68 174 106 158 144 60 25 327 297 287 260 251 118 99 311 291 270 282 300 298 294 286 280 273 273 275 277 274 267
89 88 85 84 82 82 84 79 81 107 130 179 197 202 210 222 59 57 33 42 349 303 297 295 298 83 17 3 357 353 308 301 294 284 283 281 281 280 280 280 281 281
91 93 93 95 93 94 96 104 121 127 149 169 172 8 311 66 42 17 35 24 0 352 339 336 335 19 4 353 348 345 337 321 290 288 284 283 285 285 283 283 284 284
94 98 100 99 100 110 121 125 124 127 106 123 92 336 40 31 30 9 18 10 4 332 312 317 314 358 348 343 341 337 329 325 295 284 275 273 276 278 281 283 282 288
106 110 109 112 112 107 106 99 92 84 43 21 18 21 24 13 4 1 2 330 320 318 308 299 282 316 348 348 344 335 332 321 292 289 287 284 283 285 287 286 287 284
114 117 117 115 109 99 93 86 70 52 30 17 3 343 348 305 320 306 290 288 297 308 300 294 317 28 12 356 344 340 336 320 318 305 298 294 293 296 292 292 291 286
111 111 110 108 103 94 82 76 61 48 29 14 349 326 325 329 312 293 289 295 287 283 285 291 307 18 6 352 350 346 346 330 313 306 301 303 301 300 295 290 286 283
101 109 113 107 97 84 75 67 51 36 48 14 335 311 313 313 306 304 282 270 268 263 277 296 302 328 351 6 356 355 352 338 326 318 305 305 305 302 302 297 293 294
98 98 100 95 85 74 67 56 37 28 353 325 291 277 270 268 290 289 299 298 272 258 272 274 285 346 32 9 5 3 360 347 334 324 315 320 319 313 312 305 301 297
92 84 82 77 75 67 57 47 10 348 337 320 306 279 289 312 311 309 296 287 288 257 251 243 350 10 38 22 15 10 6 356 337 340 335 327 323 318 315 311 307 306